Regional Weather Roundup
Issued by NWS

Home | Current Version | Previous Version | Text Only | Print | Product List | Glossary On
Versions: 1 2 3 4 5 6 7 8 9 10 11 12 13 14 15 16 17 18 19 20 21 22 23 24 25 26 27 28 29 30 31 32 33 34 35 36 37 38 39 40 41 42 43 44 45 46 47 48 49 50
000
ASUS44 KOUN 211910
RWROK

WEATHER ROUNDUP FOR OKLAHOMA
NATIONAL WEATHER SERVICE NORMAN OK
200 PM CDT TUE OCT 21 2014

NOTE: "FAIR" INDICATES FEW OR NO CLOUDS BELOW 12,000 FEET WITH NO
      SIGNIFICANT WEATHER AND/OR OBSTRUCTIONS TO VISIBILITY.

OKZ001>007-009>012-014-015-017-212000-
NORTHWEST OKLAHOMA AND THE PANHANDLE

CITY           SKY/WX    TMP DP  RH WIND       PRES   REMARKS
GAGE           MOSUNNY   78  54  43 S13       30.05F
ENID/WOODRING  MOSUNNY   84  59  42 S10       30.04F
$$

OKZ016-021>023-033>039-044-045-212000-
SOUTHWEST OKLAHOMA

CITY           SKY/WX    TMP DP  RH WIND       PRES   REMARKS
LAWTON/REGL    SUNNY     81  56  42 SE9       30.05F
LAWTON/FT SILL SUNNY     82  58  43 SE6       30.04F
FREDERICK      MOSUNNY   82  55  39 S9        30.02F
CLINTON        MOSUNNY   79  53  40 S8        30.08F
HOBART         MOSUNNY   81  54  39 S12       30.06F
ALTUS AFB      MOSUNNY   82  56  41 SE8       30.05F
$$

OKZ018>020-024>031-212000-
CENTRAL OKLAHOMA

CITY           SKY/WX    TMP DP  RH WIND       PRES   REMARKS
OKLAHOMA CITY  MOSUNNY   82  57  42 S8        30.06F
OKC/WILEY POST MOSUNNY   80  58  46 VRB6      30.05F
OKC/TINKER AFB MOSUNNY   79  59  50 SE8       30.06F
STILLWATER     SUNNY     84  59  42 S10       30.05F
GUTHRIE        MOSUNNY   82  58  43 S7        30.05F
$$

OKZ008-013-054>072-212000-
NORTHEAST OKLAHOMA

CITY           SKY/WX    TMP DP  RH WIND       PRES   REMARKS
TULSA          MOSUNNY   78  63  59 SE6       30.05F
TULSA/JONES    SUNNY     78  62  57 CALM      30.06F
PONCA CITY     SUNNY     80  61  52 VRB7      30.05F
BARTLESVILLE   SUNNY     77  58  51 SE7       30.08F
MUSKOGEE       SUNNY     78  61  55 VRB3      30.08F
$$

OKZ032-040>043-046>053-073>077-212000-
SOUTH CENTRAL/SOUTHEAST OKLAHOMA

CITY           SKY/WX    TMP DP  RH WIND       PRES   REMARKS
ARDMORE/DWNTWN SUNNY     79  55  44 S7        30.06F
MCALESTER      MOSUNNY   78  60  53 CALM      30.08F
$$




USA.gov is the U.S. government's official web portal to all federal, state and local government web resources and services.